Home   Weather   Madison   Past weeks

Flag for USA Past Weather in Madison, Wisconsin, USA — Yesterday and Last 2 Weeks

Now
37 °F

Overcast.


Feels Like: 37 °F
Forecast: 33 / 38 °F
Wind: No wind

Location: Dane County Regional-Truax Field

Current Time: Jan 24, 2017 at 3:43:09 pm

Latest Report: Jan 24, 2017 at 2:53 pm


Visibility: 10 mi

Pressure: 29.85 "Hg

Humidity: 79%

Dew Point: 31 °F

Location of MadisonLocation

Past Weather in Madison — Graph

°F

Madison Temperature Yesterday

Maximum temperature yesterday: 40 °F (at 12:53 pm)
Minimum temperature yesterday: 35 °F (at 1:37 am)
Average temperature yesterday: 37 °F

High & Low Weather Summary for the Past Weeks

 TemperatureHumidityPressure
High45 °F (Jan 21, 11:53 am)100% (Jan 16, 11:53 pm)30.87 "Hg (Jan 16, 11:53 pm)
Low4 °F (Jan 13, 7:53 am)45% (Jan 12, 4:53 pm)29.12 "Hg (Jan 10, 1:22 pm)
Average30 °F87%29.94 "Hg
* Reported Jan 9 1:53 pm — Jan 24 1:53 pm, Madison, Weather by CustomWeather, © 2017

Note: Actual official high and low records may vary slightly from our data, if they occured in-between our weather recording intervals... More about our weather records

Advertising

Madison Weather History for the Previous 24 Hours

Scroll right to see more
 ConditionsComfort  
Time TempWeatherWind HumidityBarometerVisibility
1:53 pm
Tue, Jan 24
37 °FOvercast.No wind79%29.84 "Hg10 mi
12:53 pm36 °FOvercast.No wind82%29.86 "Hg10 mi
12:15 pm36 °FOvercast.No wind79%29.85 "Hg10 mi
11:53 am37 °FOvercast.6 mph79%29.88 "Hg10 mi
10:53 am37 °FOvercast.6 mph79%29.90 "Hg10 mi
9:53 am36 °FOvercast.3 mph82%29.91 "Hg10 mi
8:53 am35 °FOvercast.3 mph85%29.91 "Hg10 mi
7:53 am34 °FOvercast.6 mph88%29.91 "Hg10 mi
6:53 am34 °FOvercast.3 mph85%29.90 "Hg10 mi
5:53 am34 °FOvercast.7 mph85%29.89 "Hg10 mi
4:53 am34 °FOvercast.5 mph88%29.88 "Hg10 mi
3:53 am34 °FOvercast.5 mph88%29.86 "Hg10 mi
2:53 am34 °FOvercast.5 mph88%29.87 "Hg10 mi
1:53 am35 °FOvercast.6 mph85%29.86 "Hg10 mi
12:53 am35 °FOvercast.5 mph88%29.85 "Hg10 mi
11:53 pm
Mon, Jan 23
36 °FOvercast.No wind85%29.85 "Hg10 mi
10:53 pm36 °FOvercast.3 mph85%29.85 "Hg10 mi
9:53 pm36 °FOvercast.3 mph85%29.85 "Hg10 mi
8:53 pm36 °FOvercast.No wind85%29.85 "Hg10 mi
7:53 pm36 °FOvercast.3 mph89%29.85 "Hg10 mi
6:53 pm37 °FOvercast.5 mph89%29.84 "Hg10 mi
5:53 pm37 °FOvercast.3 mph93%29.83 "Hg10 mi
5:05 pm37 °FOvercast.6 mph93%29.79 "Hg10 mi
4:53 pm37 °FMostly cloudy.5 mph93%29.82 "Hg9 mi
4:34 pm37 °FMostly cloudy.6 mph93%29.79 "Hg10 mi
3:53 pm37 °FFog.7 mph93%29.80 "Hg5 mi
Weather by CustomWeather, © 2017

See weather overviewHow to use our weather pages